Shenyang Taoxian International Airport

Airport
ICAO code: 
ZYTX
IATA Code: 
SHE
Summary
ICAO Region: 
APAC
Territory: 
Location: 
Shenyang, Liaoning,
Serving: 
Shenyang
Elevation: 
198 ft
Coordinates: 
Aerial View: 
41° 38' 24" N, 123° 29' 1" E
Metar
Observation
ZYTX 240630Z VRB01MPS 6000 NSC M03/M17 Q1024 NOSIG
Station
Shenyang / Taokian
Date/Time
2022-01-24 06:30:00
Lowest cloud amount
nil significant cloud
Temperature
-3°C
Dew point
-17°C
Humidity
32%
QNH
1024 hPa
Weather condition
n/a

Description

Shenyang Taoxian International Airport is an airport in Shenyang, Liaoning, China. It is located about 20 km south of the city center.

Climatology

Warm continental climate/Humid continental climate (Köppen climate classification Dwa).

Runways

Designator Length Width Surface Rops
6/24 3200 45 CON Yes/Yes
Airport map: 
Aerial View: 

SKYbrary Partners:

Safety knowledge contributed by: